This demonstration page uses our WeatherBlox Daily Observations layout. Learn more.

Left ArrowRight Arrow

38.20091, -84.87328

Hourly Observations for October 29, 2021

Temp ( °F °C ) Dew Point ( °F °C ) Humidity (%) Winds ( mph kmh ) Pressure ( in mb ) Visibility ( mi km ) Precip ( " mm )
12:53 am 00:53 Cloudy 54 12.2 53 11.7 97 97 N N/A 29.47 998 10 16 N/A
1:53 am 01:53 Cloudy 53 11.7 53 11.7 100 100 N N/A 29.46 998 10 16 N/A
2:53 am 02:53 Cloudy 54 12.2 53 11.7 97 97 SSE 3 6 29.45 997 10 16 N/A
3:53 am 03:53 Partly Cloudy with Mist and Fog 51 10.6 50 10 96 96 N N/A 29.44 997 2 3 N/A
3:59 am 03:59 Mostly Cloudy with Mist and Fog 52 11.1 51 10.6 97 97 N N/A 29.46 998 2 2 N/A
4:02 am 04:02 Mostly Cloudy with Mist and Fog 52 11.1 51 10.6 97 97 N N/A 29.46 998 3 5 N/A
4:22 am 04:22 Mostly Cloudy with Mist and Fog 51 10.6 51 10.6 100 100 N N/A 29.46 998 3 5 N/A
4:27 am 04:27 Mostly Cloudy with Mist and Fog 50 10 50 10 100 100 N N/A 29.46 998 1 2 N/A
4:29 am 04:29 Mostly Cloudy with Mist and Fog 50 10 49 9.4 96 96 N N/A 29.46 998 1 1 N/A
4:44 am 04:44 Mostly Cloudy with Mist and Fog 51 10.6 50 10 96 96 N N/A 29.46 998 1 2 N/A
4:48 am 04:48 Mostly Cloudy with Mist and Fog 52 11 52 11 100 100 N N/A 29.46 998 3 5 N/A
4:53 am 04:53 Mostly Cloudy with Mist and Fog 51 10.6 50 10 96 96 N N/A 29.44 997 6 10 N/A
5:16 am 05:16 Mostly Cloudy with Mist and Fog 50 10 50 10 100 100 N N/A 29.45 997 2 3 N/A
5:20 am 05:20 Mostly Cloudy with Mist and Fog 51 10.6 50 10 96 96 N N/A 29.45 997 1 2 N/A
5:28 am 05:28 Mostly Cloudy with Fog 50 10 49 9.4 96 96 N N/A 29.44 997 1 1 N/A
5:35 am 05:35 Mostly Cloudy with Fog 50 10 49 9.4 96 96 N N/A 29.44 997 1 1 N/A
5:53 am 05:53 Cloudy with Fog 49 9.4 48 8.9 97 97 N N/A 29.43 997 0 0 N/A
5:57 am 05:57 Cloudy with Fog 49 9.4 49 9.4 100 100 N N/A 29.44 997 1 1 N/A
6:19 am 06:19 Cloudy with Mist and Fog 50 10 50 10 100 100 N N/A 29.44 997 1 2 N/A
6:29 am 06:29 Cloudy with Mist and Fog 51 10.6 50 10 96 96 N N/A 29.44 997 1 2 N/A
6:36 am 06:36 Cloudy with Fog 50 10 50 10 100 100 N N/A 29.43 997 1 1 N/A
6:53 am 06:53 Mostly Cloudy with Fog 49 9.4 49 9.4 100 100 N N/A 29.42 996 0 0 N/A
7:10 am 07:10 Mostly Cloudy with Fog 51 10.6 50 10 96 96 E 3 6 29.43 997 N/A N/A
7:22 am 07:22 Mostly Cloudy with Fog 51 10.6 51 10.6 100 100 N N/A 29.44 997 0 0 N/A
7:53 am 07:53 Mostly Cloudy with Fog 51 10.6 51 10.6 100 100 N N/A 29.42 996 0 0 N/A
8:35 am 08:35 Mostly Cloudy with Fog 52 11.1 51 10.6 97 97 N N/A 29.45 997 N/A N/A
8:53 am 08:53 Mostly Cloudy with Fog 52 11.1 52 11.1 100 100 N N/A 29.44 997 N/A N/A
9:04 am 09:04 Mostly Cloudy with Fog 52 11.1 52 11.1 100 100 N N/A 29.46 998 0 0 N/A
9:53 am 09:53 Cloudy with Fog 53 11.7 52 11.1 96 96 NNW 3 6 29.46 998 0 0 N/A
10:09 am 10:09 Cloudy with Mist and Fog 53 11.7 52 11.1 96 96 N N/A 29.47 998 1 1 N/A
10:19 am 10:19 Cloudy with Mist and Fog 53 11.7 52 11.1 96 96 N N/A 29.47 998 1 2 N/A
10:26 am 10:26 Cloudy with Mist and Fog 53 11.7 52 11.1 96 96 N N/A 29.47 998 3 5 N/A
10:53 am 10:53 Cloudy with Mist and Fog 54 12.2 53 11.7 97 97 N N/A 29.46 998 6 10 N/A
11:53 am 11:53 Cloudy 55 12.8 54 12.2 96 96 N N/A 29.46 998 10 16 N/A
12:24 pm 12:24 Cloudy 58 14.4 55 12.8 90 90 NNW 6 9 29.46 998 10 16 N/A
12:53 pm 12:53 Mostly Cloudy 58 14.4 55 12.8 90 90 N N/A 29.45 997 10 16 N/A
1:07 pm 13:07 Cloudy 58 14.4 55 12.8 90 90 SSW 5 7 29.45 997 10 16 N/A
1:53 pm 13:53 Mostly Cloudy 60 15.6 53 11.7 78 78 WSW 3 6 29.44 997 10 16 N/A
2:53 pm 14:53 Cloudy 60 15.6 55 12.8 84 84 WSW 5 7 29.43 997 10 16 0.01 0.25
3:53 pm 15:53 Cloudy 62 16.7 54 12.2 75 75 NW 6 9 29.43 997 10 16 N/A
4:53 pm 16:53 Cloudy 60 15.6 54 12.2 80 80 W 3 6 29.44 997 10 16 0.00 0.00
5:53 pm 17:53 Cloudy 59 15 54 12.2 83 83 W 3 6 29.45 997 10 16 0.00 0.00
6:53 pm 18:53 Cloudy with Light Rain 57 13.9 55 12.8 93 93 N N/A 29.46 998 7 11 0.03 0.76
7:35 pm 19:35 Cloudy with Heavy Rain 56 13.3 55 12.8 97 97 WSW 5 7 29.47 998 2 3 0.15 3.81
7:42 pm 19:42 Cloudy with Rain 56 13.3 55 12.8 97 97 SW 7 11 29.47 998 3 5 0.16 4.06
7:51 pm 19:51 Cloudy with Rain 57 14 54 12 88 88 SW 7 11 29.47 998 4 6 0.19 4.83
7:53 pm 19:53 Mostly Cloudy with Rain 56 13.3 55 12.8 97 97 WSW 6 9 29.47 998 4 6 0.19 4.83
8:19 pm 20:19 Cloudy with Light Rain 56 13.3 55 12.8 97 97 SW 7 11 29.48 998 5 8 0.06 1.52
8:53 pm 20:53 Cloudy with Rain 56 13.3 55 12.8 97 97 SW 8 13 29.47 998 4 6 0.11 2.79
9:21 pm 21:21 Cloudy with Rain 56 13.3 55 12.8 97 97 SW 7 11 29.48 998 3 5 0.09 2.29
9:53 pm 21:53 Cloudy with Light Rain 56 13.3 55 12.8 97 97 SW 10 17 29.47 998 8 13 0.11 2.79
10:27 pm 22:27 Cloudy with Light Rain 56 13.3 55 12.8 97 97 WSW 8 13 29.47 998 3 5 0.04 1.02
10:35 pm 22:35 Cloudy with Light Rain 56 13.3 55 12.8 97 97 SW 9 15 29.47 998 8 13 0.04 1.02
10:53 pm 22:53 Cloudy with Rain 56 13.3 55 12.8 97 97 WSW 8 13 29.46 998 4 6 0.07 1.78
11:18 pm 23:18 Cloudy with Rain 56 13.3 55 12.8 97 97 SW 10 17 29.46 998 4 6 0.07 1.78
11:25 pm 23:25 Cloudy with Rain 56 13.3 55 12.8 97 97 SW 8 13 29.46 998 5 8 0.08 2.03
11:32 pm 23:32 Cloudy with Rain 56 13.3 55 12.8 97 97 SW 9 15 29.46 998 6 10 0.09 2.29
11:41 pm 23:41 Cloudy with Rain 56 13.3 55 12.8 97 97 SW 9 15 29.46 998 5 8 0.12 3.05
11:50 pm 23:50 Cloudy with Light Rain 55 13 55 13 100 100 WSW 10 17 29.46 998 5 8 0.13 3.30
11:53 pm 23:53 Cloudy with Light Rain 56 13.3 55 12.8 97 97 WSW 9 15 29.44 997 6 10 0.13 3.30

Powered by AerisWeather